Location: Watson Lake
(60.1170°N, 128.8000°W)
Time: 08:06:03
(UTC-07:00)

Daily predictions for brighter satellites

Satellite Brightness Start Highest point End
(mag) Time Altitude Azimuth Time Altitude Azimuth Time Altitude Azimuth
Cosmos 2082 Rocket 2.6 23:21:19 10° NW 23:26:59 60° WSW 23:32:34 10° SSE
Cosmos 2341 Rocket 4.2 23:21:20 10° SSW 23:27:40 85° WNW 23:33:58 10° NNE
Cosmos 1782 Rocket 3.7 23:24:50 10° SSW 23:29:18 88° W 23:33:50 10° NNE
Cosmos 1844 Rocket 2.7 23:24:27 10° SSW 23:30:04 70° ESE 23:35:42 10° NE
Cosmos 1408 2.9 23:27:41 10° SSW 23:31:20 69° WNW 23:35:01 10° N
CZ-4 R/B 3.8 23:27:34 10° NNE 23:32:21 79° ESE 23:37:03 10° SSW
Cosmos 1975 Rocket 4.5 23:31:23 10° NNW 23:35:19 34° W 23:39:14 10° SSW
IGS 5A 3.9 23:32:01 10° S 23:36:09 59° WSW 23:40:18 10° NNW
Cosmos 44 Rocket 4.3 23:31:49 10° WNW 23:36:58 53° NNE 23:42:02 10° E
Cosmos 1689 Rocket 4.4 23:35:10 10° ESE 23:37:32 19° ENE 23:39:53 10° N
Cosmos 1242 Rocket 4.2 23:37:39 10° NNW 23:40:50 29° W 23:44:02 10° SSW
Cosmos 2263 Rocket 3.5 23:39:53 10° WSW 23:45:21 47° NW 23:50:49 10° NE
Okean 1 3.4 23:41:43 10° NNW 23:45:48 85° ENE 23:49:53 10° SSE
CARTOSAT-1 4.5 23:43:17 10° S 23:47:26 44° W 23:51:36 10° NNW
Cosmos 2297 4.4 23:42:19 10° S 23:47:29 36° ESE 23:52:40 10° NE
Cosmos 1536 Rocket 4.0 23:43:43 10° NNW 23:48:10 62° W 23:52:35 10° S
CZ-4B R/B 3.0 23:47:00 10° ESE 23:49:36 24° ENE 23:52:14 10° N
